DT_LEITURA;HR_LEITURA;MED-PressaoAtm[hPa];VAL-TempExt[oC];VAL-UmidExt[%UR];VAL-TempInt[oC];VAL-UmidInt[%UR];Dir-Vento[grau];Vel-Vento[m/s];Precipitação[mm/h]
16/08/2026;21:00:00;1010,6;-35,3;0;26,7;86;28;0,4;0,0
16/08/2026;21:05:00;1010,8;-35,3;0;26,7;86;59;0,3;0,0
16/08/2026;21:10:00;1010,9;-35,4;0;26,7;86;291;0,3;0,0
16/08/2026;21:15:00;1011,0;-35,4;0;26,7;86;6;0,4;0,0
16/08/2026;21:20:00;1011,0;-35,5;0;26,7;86;16;0,5;0,0
16/08/2026;21:25:00;1011,1;-35,5;0;26,7;86;14;0,4;0,0
16/08/2026;21:30:00;1011,1;-35,6;0;26,7;86;38;0,3;0,0
16/08/2026;21:35:00;1011,3;-35,6;0;26,7;86;7;0,4;0,0
16/08/2026;21:40:00;1011,3;-35,6;0;26,7;86;24;0,3;0,0
16/08/2026;21:45:00;1011,4;-35,5;1;26,7;86;347;0,4;0,0
16/08/2026;21:50:00;1011,5;-35,5;1;26,8;86;334;0,3;0,0
16/08/2026;21:55:00;1011,6;-35,6;1;26,9;86;36;0,3;0,0
16/08/2026;22:00:00;1011,6;-35,7;0;27,0;85;60;0,2;0,0
16/08/2026;22:05:00;1011,7;-35,7;0;27,0;85;276;0,3;0,0
16/08/2026;22:10:00;1011,7;-35,7;0;27,1;85;322;0,4;0,0
16/08/2026;22:15:00;1011,7;-35,7;0;27,2;84;320;0,3;0,0
16/08/2026;22:20:00;1011,8;-35,8;0;27,3;84;314;0,4;0,0
16/08/2026;22:25:00;1011,9;-35,8;0;27,3;83;357;0,4;0,0
16/08/2026;22:30:00;1011,9;-35,8;0;27,4;83;309;0,4;0,0
16/08/2026;22:35:00;1011,9;-35,8;0;27,4;82;354;0,4;0,0
16/08/2026;22:40:00;1011,8;-35,8;0;27,5;82;331;0,4;0,0
16/08/2026;22:45:00;1011,9;-35,9;0;27,5;82;325;0,4;0,0
16/08/2026;22:50:00;1011,9;-35,9;0;27,5;82;276;0,3;0,0
16/08/2026;22:55:00;1011,9;-35,9;0;27,6;82;131;0,6;0,0
16/08/2026;23:00:00;1011,9;-35,9;0;27,6;82;138;0,8;0,0
16/08/2026;23:05:00;1011,9;-35,9;0;27,6;81;144;0,8;0,0
16/08/2026;23:10:00;1011,9;-35,9;0;27,7;81;139;0,5;0,0
16/08/2026;23:15:00;1012,0;-35,9;0;27,7;81;138;1,2;0,0
16/08/2026;23:20:00;1012,0;-36,0;0;27,7;81;115;0,8;0,0
16/08/2026;23:25:00;1011,9;-36,0;0;27,7;81;138;0,7;0,0
16/08/2026;23:30:00;1011,9;-36,0;0;27,8;81;131;1,0;0,0
16/08/2026;23:35:00;1011,9;-36,0;0;27,8;81;108;1,0;0,0
16/08/2026;23:40:00;1011,9;-36,0;0;27,8;80;121;1,7;0,0
16/08/2026;23:45:00;1011,9;-36,0;0;27,8;80;119;1,4;0,0
16/08/2026;23:50:00;1011,8;-36,0;0;27,8;80;125;1,8;0,0
16/08/2026;23:55:00;1011,8;-35,9;1;27,8;80;122;1,6;0,0
